Wind_Speed
14 13 12 11 10 9 8 8 8 7 7 7 7 6 7 7 7 8 9 9 9 11 14 15 15 15 16 17 18 19 20 21 21 21 21 21 21 22 23 24 26 27
15 14 13 12 11 10 10 10 9 8 8 8 8 8 8 8 8 9 10 11 12 13 15 17 17 17 17 18 19 20 21 22 23 23 23 23 23 23 23 24 26 27
17 16 15 14 13 13 12 11 10 10 9 9 10 10 9 9 10 10 11 13 14 15 16 18 19 19 18 19 19 20 22 23 24 24 24 24 24 24 24 25 26 27
19 18 17 16 15 15 14 13 12 12 12 12 12 12 12 12 12 13 14 15 16 17 18 20 21 22 21 20 21 22 23 24 24 25 26 26 25 26 26 26 26 27
21 20 19 19 18 18 17 16 15 15 15 15 16 16 16 16 16 17 18 18 19 20 21 22 23 24 23 22 22 23 24 25 25 25 27 27 27 27 28 28 28 29
24 23 22 22 22 22 21 20 19 18 18 18 19 20 20 20 20 20 21 21 22 22 23 24 25 26 26 24 23 24 25 26 26 27 27 28 29 28 29 29 30 30
26 26 25 26 26 26 25 23 22 22 21 22 22 22 23 23 23 23 24 24 25 25 25 26 28 28 28 27 25 24 25 27 28 29 29 30 30 30 30 30 31 32
28 28 28 27 27 27 27 26 25 25 25 26 26 25 25 25 25 26 26 27 27 27 28 28 30 30 30 28 27 26 26 27 29 31 31 31 32 32 32 32 33 34
29 29 29 28 29 28 28 27 27 27 28 29 29 28 28 28 27 28 29 29 29 30 30 30 31 31 31 30 29 28 28 29 31 32 33 33 33 34 35 35 35 35
30 30 30 30 29 28 27 27 28 29 30 30 31 31 31 31 30 30 31 30 31 31 31 31 32 32 32 31 30 30 30 30 32 34 35 36 35 36 37 37 37 38
32 31 31 30 28 27 27 28 29 30 31 31 31 31 32 33 32 32 32 32 32 32 32 32 32 33 33 32 32 33 33 33 34 35 37 38 37 37 38 40 40 40
33 32 31 30 28 28 28 28 29 30 30 31 31 32 33 33 33 33 33 33 33 33 33 33 33 34 34 34 34 34 35 36 36 37 38 39 39 39 40 42 43 43
34 33 32 31 30 30 30 30 30 31 31 31 32 33 34 34 34 34 34 34 34 34 35 35 35 36 36 36 36 36 37 38 39 39 39 40 41 41 42 44 45 45
36 34 33 32 32 32 32 32 32 32 33 33 33 34 34 35 35 35 35 36 36 36 36 36 36 37 38 38 37 38 39 40 41 42 41 42 43 44 45 46 48 49
35 34 33 33 34 34 34 34 34 34 35 35 35 35 36 36 37 38 38 38 38 38 38 38 38 38 39 39 40 40 40 41 42 43 44 45 45 46 47 49 50 51
36 35 35 35 36 37 37 36 36 37 37 37 37 38 38 39 40 40 40 40 39 39 39 39 39 40 40 41 41 42 42 43 44 45 46 47 48 49 50 51 52 54
37 36 36 38 39 39 39 39 39 39 39 40 40 40 41 41 42 41 41 40 40 40 40 41 41 41 42 42 43 44 45 45 46 47 49 50 51 52 53 54 55 55
38 38 38 40 40 41 40 40 41 41 42 42 42 42 42 42 42 41 41 41 42 42 43 43 43 44 44 44 45 46 47 48 49 50 52 53 54 55 56 57 58 58
40 41 42 43 42 42 42 42 43 43 43 43 43 43 43 43 43 43 43 43 44 44 45 45 46 46 47 47 48 48 49 51 52 54 55 56 57 58 59 60 61 62
43 44 45 45 44 44 44 44 44 44 44 44 44 44 44 44 44 45 45 45 46 47 47 48 49 49 50 51 51 52 53 54 55 57 59 60 61 61 62 63 64 65
45 46 46 45 45 45 45 46 46 46 47 46 46 46 47 47 47 48 48 48 48 49 50 51 52 53 54 54 55 56 56 57 58 59 61 63 65 65 65 66 66 66
47 47 47 47 47 47 48 49 49 49 49 49 49 49 50 51 51 51 51 51 52 53 53 55 55 56 57 58 59 60 60 61 62 62 63 65 67 67 67 67 66 66
49 49 49 49 49 50 51 52 51 51 51 52 52 53 54 54 55 55 55 56 56 57 57 58 58 59 60 62 63 64 64 64 65 65 65 65 66 65 65 64 63 62
52 52 53 53 53 54 55 55 54 54 55 55 56 56 56 57 58 58 59 60 60 61 61 61 61 62 62 63 64 65 65 64 64 63 61 60 59 59 58 57 57 57
56 56 56 57 57 58 58 58 57 58 58 58 59 59 59 59 60 61 61 62 62 61 60 60 59 58 57 58 58 58 58 58 57 55 54 53 53 52 52 51 50 51
56 56 56 56 57 57 57 57 57 57 57 57 57 57 56 56 56 55 55 55 56 55 53 52 52 51 49 50 51 52 52 52 52 51 51 51 49 49 49 47 47 47
Wind_Direction
212 212 212 213 213 211 212 216 220 222 226 235 242 247 254 263 271 279 286 296 307 317 324 329 333 335 334 335 337 340 343 344 345 346 348 351 355 357 358 358 358 359
220 222 224 224 224 225 226 228 229 230 235 241 250 256 259 265 272 278 284 293 303 313 321 325 329 331 331 331 332 335 337 338 339 340 341 343 346 350 352 353 354 354
226 231 235 236 236 237 240 242 243 247 251 255 260 263 268 272 276 280 287 295 303 313 320 323 324 326 327 327 328 329 331 332 334 336 336 337 338 341 345 348 350 350
230 235 241 245 248 250 252 255 257 262 267 271 273 274 277 279 282 286 290 294 301 308 314 318 320 321 322 323 323 324 326 327 328 330 332 332 333 335 338 341 344 345
232 237 242 248 252 255 257 259 261 265 268 272 277 280 281 283 285 288 290 293 298 303 308 311 315 317 317 318 319 320 321 322 323 325 328 328 329 330 332 335 337 340
236 239 243 248 252 254 256 259 262 264 267 270 273 277 280 283 285 287 289 293 296 299 303 306 309 312 313 313 314 316 317 318 319 321 323 323 324 326 328 330 332 334
239 241 244 247 250 254 257 259 262 265 267 269 271 273 277 280 282 285 289 291 294 297 300 302 304 307 308 308 310 312 314 314 315 317 319 319 320 321 323 326 328 330
239 241 244 246 250 254 257 259 262 265 266 267 269 271 274 276 280 284 286 289 291 294 297 299 301 303 304 304 306 308 310 311 312 314 316 316 317 318 320 322 324 325
237 240 243 246 250 253 256 258 261 263 265 267 269 272 274 277 279 282 284 286 288 291 294 296 298 300 301 301 303 305 307 308 309 310 312 313 314 315 316 319 321 322
238 240 243 245 248 251 254 256 258 260 262 265 268 271 274 277 279 280 282 284 287 289 292 294 296 298 298 298 300 302 304 305 306 307 309 310 311 312 314 316 317 319
239 241 243 245 248 251 253 254 255 257 259 263 267 270 273 275 278 280 282 284 285 287 289 291 294 295 295 296 298 300 302 302 303 304 306 307 309 310 312 313 314 316
241 242 244 245 248 250 252 253 255 257 259 262 266 268 271 273 276 278 280 282 283 285 287 289 291 292 292 294 296 298 300 301 301 303 304 306 307 309 310 311 312 313
243 243 244 245 246 247 249 251 253 256 259 261 263 266 268 271 274 276 278 280 282 284 285 287 288 289 290 291 294 296 298 299 300 301 303 305 306 307 308 309 310 311
244 245 246 246 247 248 248 250 252 255 257 260 262 265 267 270 272 275 277 279 281 282 283 284 285 287 288 291 293 294 296 297 299 300 302 303 304 305 306 307 307 308
246 247 248 249 251 251 252 253 254 256 258 260 262 264 267 270 272 274 276 278 280 281 282 283 285 286 288 291 292 293 295 296 298 299 300 301 302 303 303 304 305 306
248 249 251 253 254 255 255 256 257 258 260 262 264 266 268 271 273 274 276 278 280 281 282 283 285 287 288 290 291 293 294 295 296 297 298 299 300 300 301 302 303 304
249 250 252 254 255 256 257 258 260 261 263 265 267 269 271 273 274 276 277 279 280 281 282 284 285 287 288 289 290 292 293 293 295 296 296 297 298 298 299 300 301 302
250 251 252 253 254 256 257 259 260 262 264 266 269 270 272 274 275 277 279 280 281 282 283 283 285 286 287 287 288 289 291 292 293 294 295 295 296 297 298 298 299 300
250 251 252 253 254 255 257 259 261 263 265 268 269 271 273 274 276 278 279 279 280 281 281 282 283 284 285 285 287 288 289 290 292 293 293 294 294 295 296 297 298 299
249 250 252 254 256 258 260 262 263 265 266 268 269 271 272 274 275 276 276 277 278 278 280 281 281 282 284 285 286 287 287 289 290 291 292 293 293 294 295 296 297 298
250 251 253 256 258 260 261 262 263 264 265 266 268 269 270 271 272 272 273 275 276 278 279 280 281 283 284 285 285 286 287 288 289 289 291 291 292 293 294 294 295 295
252 254 256 257 259 260 261 262 263 264 266 267 268 269 269 270 271 272 274 276 277 278 279 280 282 283 284 285 285 286 286 287 288 288 289 289 290 291 291 292 293 294
255 256 258 259 260 261 262 263 264 265 267 268 269 270 271 272 274 275 277 278 279 279 280 281 282 283 284 285 285 285 286 286 287 287 287 288 289 290 291 292 293 294
256 257 258 259 261 261 262 264 265 267 268 269 270 272 273 275 276 277 278 279 279 280 281 282 283 283 284 285 285 286 286 286 286 287 288 289 290 291 293 294 295 297
257 259 260 261 262 263 264 266 267 268 269 270 271 272 274 275 276 277 278 279 280 280 281 282 283 283 284 285 286 287 287 288 288 289 290 291 291 293 294 296 297 299
259 260 261 262 264 265 266 267 267 268 269 270 271 273 274 275 276 277 278 279 280 281 282 283 284 285 286 287 288 289 289 289 291 291 291 291 292 294 296 298 299 300
Height
10993 10994 10995 10996 10997 10998 10999 10999 11000 11000 11000 11001 11001 11001 11001 11001 11001 11001 11001 11001 11001 11000 11000 11000 11000 10999 10998 10997 10996 10995 10993 10992 10992 10991 10990 10990 10988 10987 10986 10984 10982 10980
10992 10993 10994 10995 10996 10997 10997 10998 10999 10999 10999 11000 11000 11000 11000 11000 11000 11000 11000 11000 11000 11000 10999 10999 10998 10998 10997 10996 10995 10994 10993 10991 10990 10989 10989 10988 10987 10986 10985 10983 10981 10979
10990 10991 10992 10993 10994 10995 10996 10996 10997 10998 10998 10998 10999 10999 10999 10999 10999 10999 10999 10999 10999 10999 10998 10998 10997 10997 10997 10996 10994 10993 10992 10990 10989 10988 10987 10986 10985 10984 10983 10982 10980 10978
10989 10990 10991 10992 10993 10993 10994 10995 10996 10996 10996 10997 10997 10997 10997 10998 10998 10998 10998 10997 10997 10997 10997 10997 10996 10995 10995 10994 10993 10992 10990 10989 10988 10987 10985 10984 10983 10982 10981 10980 10979 10977
10987 10989 10990 10990 10991 10992 10992 10993 10994 10995 10995 10995 10995 10995 10995 10996 10996 10996 10996 10996 10996 10995 10995 10995 10994 10994 10993 10993 10992 10991 10989 10988 10986 10985 10984 10983 10981 10980 10979 10978 10976 10975
10986 10987 10988 10989 10990 10990 10990 10991 10992 10993 10993 10994 10994 10993 10993 10994 10994 10994 10994 10994 10994 10994 10993 10993 10992 10992 10991 10991 10990 10989 10988 10986 10984 10983 10982 10981 10979 10978 10977 10975 10974 10973
10984 10985 10986 10987 10987 10988 10989 10990 10990 10991 10991 10992 10992 10992 10992 10992 10992 10992 10992 10991 10991 10991 10991 10990 10990 10989 10989 10988 10988 10987 10986 10984 10982 10981 10980 10979 10977 10976 10975 10973 10972 10970
10981 10982 10983 10984 10985 10986 10986 10987 10988 10988 10989 10989 10989 10989 10990 10990 10990 10990 10989 10989 10989 10988 10988 10988 10987 10987 10986 10985 10985 10985 10984 10982 10980 10979 10978 10977 10975 10974 10972 10971 10970 10968
10977 10978 10980 10981 10982 10983 10984 10985 10985 10986 10985 10985 10985 10986 10986 10987 10987 10987 10987 10986 10986 10986 10986 10985 10984 10984 10983 10982 10982 10982 10981 10980 10978 10976 10975 10974 10973 10971 10969 10968 10967 10966
10974 10975 10976 10978 10979 10980 10981 10982 10982 10982 10982 10982 10982 10983 10983 10984 10984 10984 10984 10984 10983 10983 10983 10982 10982 10981 10980 10979 10979 10978 10978 10977 10976 10974 10972 10971 10970 10968 10966 10965 10964 10963
10970 10971 10973 10974 10976 10977 10978 10979 10979 10979 10979 10979 10980 10980 10980 10980 10980 10980 10981 10980 10980 10980 10980 10979 10979 10977 10977 10976 10976 10975 10974 10973 10973 10971 10969 10967 10966 10965 10963 10961 10960 10959
10967 10968 10969 10971 10973 10974 10974 10975 10975 10975 10975 10976 10976 10976 10976 10976 10977 10977 10977 10977 10977 10977 10976 10976 10975 10974 10973 10973 10972 10972 10970 10969 10969 10968 10966 10964 10963 10962 10960 10958 10957 10955
10963 10965 10967 10968 10969 10970 10970 10970 10971 10971 10972 10972 10973 10973 10973 10973 10974 10974 10974 10973 10973 10973 10973 10973 10972 10970 10970 10969 10969 10968 10967 10965 10964 10963 10963 10961 10960 10958 10957 10955 10953 10952
10961 10963 10964 10965 10966 10966 10966 10966 10967 10968 10968 10968 10969 10969 10969 10970 10970 10970 10970 10970 10970 10970 10969 10969 10968 10967 10966 10966 10966 10965 10964 10962 10960 10959 10959 10958 10956 10955 10953 10951 10949 10947
10958 10960 10961 10962 10962 10962 10962 10963 10964 10964 10964 10965 10965 10966 10966 10966 10966 10966 10966 10966 10966 10966 10966 10965 10964 10964 10963 10962 10962 10961 10960 10959 10957 10955 10954 10953 10952 10950 10949 10946 10944 10942
10954 10956 10957 10957 10957 10957 10958 10959 10960 10960 10961 10961 10961 10962 10962 10963 10962 10962 10962 10963 10963 10962 10962 10961 10961 10960 10959 10958 10958 10957 10956 10955 10954 10952 10950 10948 10947 10945 10944 10942 10940 10938
10950 10951 10952 10952 10952 10953 10954 10955 10955 10956 10957 10957 10958 10958 10959 10959 10959 10959 10959 10959 10959 10958 10958 10957 10957 10956 10956 10955 10954 10953 10952 10950 10949 10948 10946 10943 10941 10940 10938 10937 10935 10933
10945 10946 10946 10947 10947 10948 10949 10950 10951 10951 10952 10953 10954 10954 10955 10955 10955 10955 10955 10955 10955 10954 10954 10953 10953 10952 10951 10950 10949 10948 10947 10946 10944 10942 10940 10938 10936 10934 10932 10931 10930 10928
10941 10941 10941 10942 10943 10944 10945 10946 10947 10947 10948 10949 10950 10950 10950 10950 10951 10951 10951 10951 10950 10950 10949 10949 10948 10947 10946 10945 10945 10944 10943 10941 10939 10936 10934 10932 10930 10929 10927 10925 10923 10922
10936 10936 10936 10938 10939 10941 10942 10942 10943 10943 10944 10945 10945 10946 10946 10946 10946 10946 10946 10946 10945 10944 10944 10943 10942 10941 10940 10940 10939 10938 10937 10936 10934 10931 10928 10925 10924 10923 10922 10919 10917 10915
10930 10931 10933 10934 10935 10937 10937 10938 10938 10938 10939 10940 10941 10941 10941 10940 10940 10940 10940 10940 10940 10939 10938 10937 10936 10935 10934 10933 10933 10932 10931 10930 10929 10927 10924 10920 10917 10916 10915 10913 10911 10909
10925 10927 10929 10930 10931 10931 10932 10932 10932 10933 10934 10935 10935 10935 10934 10934 10934 10934 10934 10935 10934 10934 10933 10931 10930 10930 10928 10926 10925 10924 10924 10923 10922 10921 10919 10915 10911 10909 10908 10906 10904 10902
10921 10923 10924 10925 10925 10925 10925 10925 10927 10928 10928 10929 10929 10928 10928 10928 10928 10928 10929 10928 10928 10927 10927 10925 10925 10923 10921 10918 10917 10916 10916 10915 10914 10913 10912 10909 10905 10902 10901 10899 10897 10895
10916 10917 10918 10919 10919 10919 10919 10920 10922 10922 10923 10923 10923 10923 10922 10922 10922 10922 10921 10921 10920 10920 10919 10918 10917 10916 10914 10911 10909 10907 10907 10906 10906 10905 10905 10902 10899 10897 10895 10893 10892 10889
10910 10911 10911 10912 10912 10912 10913 10915 10916 10916 10916 10916 10916 10916 10916 10916 10916 10914 10913 10913 10912 10912 10912 10911 10910 10909 10907 10904 10901 10899 10898 10897 10898 10898 10897 10895 10893 10892 10891 10889 10888 10885
10904 10904 10905 10906 10906 10906 10907 10908 10908 10909 10909 10910 10910 10910 10910 10909 10909 10908 10907 10905 10905 10904 10904 10904 10902 10902 10901 10898 10895 10893 10891 10890 10891 10891 10889 10888 10887 10887 10886 10884 10883 10880